Location: Ahausen
(50.4985°N, 8.2722°E)
Time: 07:42:29
(UTC+00:00)

YUBILEINY - Pass Details

Date: 01 July 2022
Orbit: 1478 x 1509 km, 82.5° (Epoch: 07 August)

Event Time Altitude Azimuth Distance (km) Brightness Sun altitude
Rises 01:56:08 0° 349° (N) 4,658 ? -9.7°
Reaches altitude 10° 01:59:38 10° 1° (N) 3,670 ? -9.4°
Maximum altitude 02:07:05 29° 59° (ENE) 2,472 ? -8.7°
Drops below altitude 10° 02:14:26 10° 116° (ESE) 3,636 ? -8.0°
Sets 02:17:52 0° 128° (SE) 4,608 ? -7.7°
